GW0991 Weather Reports


time (UTC)temp
C
wind
direction
speed
KPH
gust
KPH
rain 1hr
cm
rain 24hr
cm
rain mn
cm
humidity
%
barometer
mb
20260906030306 23 36 3.2 3.2 0.00 0.00 0.00 91 1016.9
20260906025805 23 180 0.0 8.0 0.00 0.00 0.00 91 1017.3
20260906025259 23 28 1.6 8.0 0.00 0.00 0.00 91 1017.2
20260906024758 23 21 6.4 9.7 0.00 0.00 0.00 91 1017.1
20260906024257 23 62 4.8 8.0 0.00 0.00 0.00 90 1017.2
20260906023753 23 104 1.6 3.2 0.00 0.00 0.00 90 1017.1
20260906023248 23 40 6.4 11.3 0.00 0.00 0.00 90 1017.0
20260906022744 24 13 4.8 11.3 0.00 0.00 0.00 90 1017.1
20260906022239 24 59 1.6 4.8 0.00 0.00 0.00 90 1016.7
20260906021736 24 44 3.2 8.0 0.00 0.00 0.00 89 1016.9
20260906021234 25 53 4.8 11.3 0.00 0.00 0.00 89 1016.7
20260906020729 25 73 4.8 11.3 0.00 0.00 0.00 89 1016.9
20260906020223 25 23 4.8 8.0 0.00 0.00 0.00 89 1016.7
20260906015718 25 62 3.2 4.8 0.00 0.00 0.00 88 1016.6
20260906015216 25 166 3.2 9.7 0.00 0.00 0.00 88 1016.6
20260906014711 25 355 6.4 8.0 0.00 0.00 0.00 88 1016.4
20260906014207 25 98 1.6 20.9 0.00 0.00 0.00 88 1016.4
20260906013703 25 116 3.2 8.0 0.00 0.00 0.00 87 1016.4
20260906013157 26 170 3.2 4.8 0.00 0.00 0.00 87 1016.4
20260906012657 26 60 3.2 9.7 0.00 0.00 0.00 87 1016.2
20260906012152 26 133 4.8 11.3 0.00 0.00 0.00 86 1016.3
20260906011648 26 40 6.4 12.9 0.00 0.00 0.00 85 1016.0
20260906011142 26 357 4.8 9.7 0.00 0.00 0.00 85 1016.3
20260906010638 26 169 4.8 8.0 0.00 0.00 0.00 85 1016.1
20260906010134 27 10 8.0 14.5 0.00 0.00 0.00 84 1016.2
20260906005633 27 34 8.0 11.3 0.00 0.00 0.00 83 1015.9
20260906005133 27 68 6.4 9.7 0.00 0.00 0.00 83 1015.9
20260906004632 27 2 4.8 27.4 0.00 0.00 0.00 83 1015.6
20260906004127 27 92 6.4 16.1 0.00 0.00 0.00 82 1015.7
20260906003622 27 49 6.4 12.9 0.00 0.00 0.00 82 1015.7
20260906003118 27 54 4.8 16.1 0.00 0.00 0.00 82 1015.6
20260906002613 28 67 8.0 14.5 0.00 0.00 0.00 82 1015.7
20260906002107 28 307 8.0 17.7 0.00 0.00 0.00 81 1015.7
20260906001602 28 245 1.6 9.7 0.00 0.00 0.00 81 1015.6
20260906001057 28 147 6.4 16.1 0.00 0.00 0.00 80 1015.6
20260906000553 29 359 6.4 12.9 0.00 0.00 0.00 79 1015.7
20260906000048 29 278 8.0 11.3 0.00 0.00 0.00 78 1015.2
20260905235547 29 347 12.9 17.7 0.00 0.00 0.00 78 1015.4
20260905235042 30 19 4.8 14.5 0.00 0.00 0.00 78 1015.2
20260905234537 30 122 6.4 16.1 0.00 0.00 0.00 77 1015.2
20260905234033 30 3 3.2 12.9 0.00 0.00 0.00 77 1015.4
20260905233533 30 329 6.4 11.3 0.00 0.00 0.00 77 1015.0
20260905233033 30 175 4.8 16.1 0.00 0.00 0.00 76 1015.3
20260905232528 31 326 6.4 20.9 0.00 0.00 0.00 74 1015.4
20260905232024 31 349 4.8 11.3 0.00 0.00 0.00 74 1015.2
20260905231519 31 58 6.4 14.5 0.00 0.00 0.00 75 1015.1
20260905231015 31 21 6.4 11.3 0.00 0.00 0.00 74 1015.1
20260905230514 31 43 3.2 8.0 0.00 0.00 0.00 74 1014.9
20260905230013 31 328 3.2 11.3 0.00 0.00 0.00 74 1015.1
20260905225507 31 21 8.0 11.3 0.00 0.00 0.00 72 1015.2
20260905225003 31 74 12.9 14.5 0.00 0.00 0.00 72 1015.1
20260905224458 31 11 4.8 12.9 0.00 0.00 0.00 72 1015.1
20260905223956 31 72 8.0 14.5 0.00 0.00 0.00 72 1015.1
20260905223455 31 219 6.4 12.9 0.00 0.00 0.00 72 1015.1
20260905222949 32 137 3.2 12.9 0.00 0.00 0.00 71 1015.1
20260905222444 32 343 4.8 4.8 0.00 0.00 0.00 71 1015.0
20260905221939 32 56 4.8 8.0 0.00 0.00 0.00 70 1014.9
20260905221436 32 228 4.8 16.1 0.00 0.00 0.00 69 1014.9
20260905220932 32 1 6.4 12.9 0.00 0.00 0.00 69 1014.9
20260905220428 32 327 6.4 12.9 0.00 0.00 0.00 69 1015.2
20260905215926 32 71 8.0 12.9 0.00 0.00 0.00 68 1015.0
20260905215422 33 84 6.4 9.7 0.00 0.00 0.00 69 1015.0
20260905214919 33 213 6.4 9.7 0.00 0.00 0.00 68 1015.0
20260905214414 32 314 3.2 9.7 0.00 0.00 0.00 70 1015.0
20260905213914 32 49 9.7 12.9 0.00 0.00 0.00 70 1015.0
20260905213410 33 94 6.4 12.9 0.00 0.00 0.00 69 1014.9
20260905212905 32 239 1.6 8.0 0.00 0.00 0.00 70 1015.0
20260905212401 32 196 0.0 11.3 0.00 0.00 0.00 71 1014.9
20260905211859 32 0 4.8 17.7 0.00 0.00 0.00 70 1014.8
20260905211355 32 284 6.4 8.0 0.00 0.00 0.00 69 1014.9
20260905210851 32 266 6.4 11.3 0.00 0.00 0.00 69 1015.0
20260905210351 33 163 1.6 4.8 0.00 0.00 0.00 68 1014.9
20260905205850 32 10 9.7 11.3 0.00 0.00 0.00 71 1014.9
20260905205345 33 50 4.8 11.3 0.00 0.00 0.00 68 1015.1
20260905204844 33 111 4.8 9.7 0.00 0.00 0.00 70 1015.1
20260905204341 33 313 4.8 8.0 0.00 0.00 0.00 69 1015.3
20260905203839 33 152 3.2 12.9 0.00 0.00 0.00 69 1015.1
20260905203335 33 182 1.6 8.0 0.00 0.00 0.00 68 1015.2
20260905202831 33 0 6.4 14.5 0.00 0.00 0.00 68 1015.1
20260905202325 33 73 1.6 11.3 0.00 0.00 0.00 69 1015.2
20260905201821 33 336 4.8 11.3 0.00 0.00 0.00 68 1015.2
20260905201316 33 248 8.0 9.7 0.00 0.00 0.00 67 1015.4
20260905200810 33 355 1.6 8.0 0.00 0.00 0.00 69 1015.2
20260905200307 34 328 3.2 9.7 0.00 0.00 0.00 69 1015.3
20260905195804 35 56 4.8 9.7 0.00 0.00 0.00 67 1015.2
20260905195259 33 310 1.6 8.0 0.00 0.00 0.00 68 1015.2
20260905194755 33 340 3.2 8.0 0.00 0.00 0.00 69 1015.2
20260905194254 33 21 4.8 12.9 0.00 0.00 0.00 69 1015.2
20260905193748 32 87 3.2 11.3 0.00 0.00 0.00 72 1015.4
20260905193243 32 269 9.7 14.5 0.00 0.00 0.00 72 1015.2
20260905192739 33 0 4.8 8.0 0.00 0.00 0.00 70 1015.4
20260905192235 35 7 6.4 14.5 0.00 0.00 0.00 68 1015.4
20260905191734 35 24 6.4 8.0 0.00 0.00 0.00 67 1015.4
20260905191232 35 317 3.2 4.8 0.00 0.00 0.00 66 1015.4
20260905190731 32 168 1.6 8.0 0.00 0.00 0.00 72 1015.4
20260905190230 33 287 3.2 8.0 0.00 0.00 0.00 71 1015.5
20260905185730 33 317 3.2 8.0 0.00 0.00 0.00 70 1015.5
20260905185225 35 93 6.4 9.7 0.00 0.00 0.00 67 1015.4
20260905184719 33 343 3.2 9.7 0.00 0.00 0.00 68 1015.6
20260905184218 33 130 3.2 9.7 0.00 0.00 0.00 70 1015.8
20260905183712 33 332 4.8 4.8 0.00 0.00 0.00 68 1015.7
20260905183207 34 81 4.8 11.3 0.00 0.00 0.00 69 1015.7
20260905182707 33 340 4.8 9.7 0.00 0.00 0.00 68 1015.6
20260905182207 34 228 4.8 11.3 0.00 0.00 0.00 68 1015.8
20260905181702 33 209 1.6 11.3 0.00 0.00 0.00 68 1015.8
20260905181201 34 67 4.8 11.3 0.00 0.00 0.00 66 1015.9
20260905180655 33 320 9.7 12.9 0.00 0.00 0.00 68 1015.9
20260905180151 33 254 4.8 11.3 0.00 0.00 0.00 67 1015.9
20260905175650 34 6 4.8 12.9 0.00 0.00 0.00 67 1015.8
20260905175146 34 56 3.2 12.9 0.00 0.00 0.00 67 1015.9
20260905174641 34 313 4.8 9.7 0.00 0.00 0.00 66 1016.0
20260905174136 34 45 3.2 9.7 0.00 0.00 0.00 67 1015.9
20260905173632 33 13 3.2 4.8 0.00 0.00 0.00 69 1016.0
20260905173128 33 143 1.6 8.0 0.00 0.00 0.00 68 1016.1
20260905172627 33 344 1.6 3.2 0.00 0.00 0.00 68 1016.1
20260905172122 34 43 4.8 8.0 0.00 0.00 0.00 67 1015.9
20260905171618 34 316 6.4 11.3 0.00 0.00 0.00 67 1016.1
20260905171114 33 116 4.8 8.0 0.00 0.00 0.00 67 1015.9
20260905170610 33 308 8.0 11.3 0.00 0.00 0.00 67 1016.1
20260905170105 33 141 4.8 9.7 0.00 0.00 0.00 68 1016.2
20260905165559 33 41 8.0 12.9 0.00 0.00 0.00 68 1016.1
20260905165055 33 86 6.4 8.0 0.00 0.00 0.00 68 1016.2
20260905164550 33 187 3.2 4.8 0.00 0.00 0.00 66 1016.2
20260905164044 33 12 6.4 9.7 0.00 0.00 0.00 67 1016.6
20260905163540 33 30 1.6 1.6 0.00 0.00 0.00 67 1016.4
20260905163036 33 141 1.6 3.2 0.00 0.00 0.00 67 1016.4
20260905162532 32 268 1.6 4.8 0.00 0.00 0.00 68 1016.4
20260905162027 33 57 8.0 11.3 0.00 0.00 0.00 67 1016.2
20260905161526 33 209 3.2 8.0 0.00 0.00 0.00 67 1016.5
20260905161024 33 87 3.2 4.8 0.00 0.00 0.00 65 1016.1
20260905160517 33 274 4.8 9.7 0.00 0.00 0.00 66 1016.3
20260905160018 33 85 4.8 11.3 0.00 0.00 0.00 65 1016.2
20260905155518 33 236 4.8 8.0 0.00 0.00 0.00 64 1016.1
20260905155016 33 290 4.8 8.0 0.00 0.00 0.00 65 1016.2
20260905154511 32 294 4.8 12.9 0.00 0.00 0.00 67 1016.1
20260905154007 33 304 4.8 9.7 0.00 0.00 0.00 66 1016.1
20260905153503 32 158 1.6 9.7 0.00 0.00 0.00 68 1016.0
20260905153003 32 31 6.4 8.0 0.00 0.00 0.00 68 1016.2
20260905152502 32 54 6.4 8.0 0.00 0.00 0.00 68 1016.2
20260905151957 33 245 4.8 8.0 0.00 0.00 0.00 66 1016.1
20260905151452 32 217 4.8 9.7 0.00 0.00 0.00 67 1016.0
20260905150947 32 208 1.6 8.0 0.00 0.00 0.00 70 1016.0
20260905150442 32 84 6.4 12.9 0.00 0.00 0.00 70 1016.0
20260905145938 32 196 4.8 4.8 0.00 0.00 0.00 70 1016.1
20260905145433 32 238 4.8 8.0 0.00 0.00 0.00 69 1015.9
20260905144933 32 242 4.8 11.3 0.00 0.00 0.00 70 1015.9
20260905144428 31 236 4.8 8.0 0.00 0.00 0.00 70 1016.1
20260905143926 31 242 4.8 8.0 0.00 0.00 0.00 69 1015.9
20260905143421 31 213 3.2 11.3 0.00 0.00 0.00 70 1015.9
20260905142915 31 209 1.6 3.2 0.00 0.00 0.00 70 1015.9
20260905142414 31 240 1.6 3.2 0.00 0.00 0.00 70 1015.9
20260905141910 32 274 6.4 9.7 0.00 0.00 0.00 71 1015.7
20260905141405 31 186 0.0 3.2 0.00 0.00 0.00 73 1015.7
20260905140901 30 257 3.2 8.0 0.00 0.00 0.00 74 1015.7
20260905140355 30 189 1.6 4.8 0.00 0.00 0.00 76 1016.0
20260905135854 29 268 4.8 9.7 0.00 0.00 0.00 77 1015.9
20260905135350 29 296 4.8 8.0 0.00 0.00 0.00 77 1015.8
20260905134846 28 205 1.6 4.8 0.00 0.00 0.00 79 1016.1
20260905134344 28 253 4.8 4.8 0.00 0.00 0.00 79 1015.9
20260905133838 28 269 3.2 8.0 0.00 0.00 0.00 80 1016.3
20260905133333 28 275 3.2 8.0 0.00 0.00 0.00 83 1016.0
20260905132832 27 205 1.6 3.2 0.00 0.00 0.00 84 1016.2
20260905132329 27 222 1.6 1.6 0.00 0.00 0.00 84 1015.8
20260905131823 27 202 1.6 3.2 0.00 0.00 0.00 84 1015.9
20260905131318 27 215 3.2 4.8 0.00 0.00 0.00 84 1016.0
20260905130813 27 206 0.0 1.6 0.00 0.00 0.00 86 1015.7
20260905130312 27 223 0.0 3.2 0.00 0.00 0.00 86 1015.6
20260905125808 26 217 0.0 3.2 0.00 0.00 0.00 87 1015.7
20260905125305 26 199 0.0 1.6 0.00 0.00 0.00 86 1015.7
20260905124759 26 221 1.6 3.2 0.00 0.00 0.00 86 1015.6
20260905124255 26 255 1.6 3.2 0.00 0.00 0.00 86 1015.7
20260905123750 26 211 3.2 3.2 0.00 0.00 0.00 86 1015.7
20260905123247 26 208 1.6 3.2 0.00 0.00 0.00 87 1015.5
20260905122746 26 201 0.0 1.6 0.00 0.00 0.00 87 1015.6
20260905122240 26 201 0.0 1.6 0.00 0.00 0.00 87 1015.6
20260905121736 26 194 0.0 0.0 0.00 0.00 0.00 88 1015.5
20260905121232 26 208 0.0 1.6 0.00 0.00 0.00 88 1015.4
20260905120730 25 198 1.6 1.6 0.00 0.00 0.00 89 1015.6
20260905120231 25 196 0.0 0.0 0.00 0.00 0.00 89 1015.3
20260905115725 25 198 0.0 0.0 0.00 0.00 0.00 90 1015.3
20260905115220 25 199 0.0 0.0 0.00 0.00 0.00 90 1015.4
20260905114714 25 202 0.0 0.0 0.00 0.00 0.00 91 1015.3
20260905114213 25 200 0.0 0.0 0.00 0.00 0.00 91 1015.2
20260905113713 25 200 0.0 0.0 0.00 0.00 0.00 90 1014.9
20260905113209 25 202 0.0 1.6 0.00 0.00 0.00 90 1015.0
20260905112708 25 199 0.0 0.0 0.00 0.00 0.00 90 1015.1
20260905112204 25 205 0.0 1.6 0.00 0.00 0.00 89 1015.1
20260905111703 25 208 1.6 1.6 0.00 0.00 0.00 89 1015.2
20260905111203 25 201 0.0 1.6 0.00 0.00 0.00 88 1015.3
20260905110703 25 199 1.6 1.6 0.00 0.00 0.00 89 1015.0
20260905110157 25 199 0.0 0.0 0.00 0.00 0.00 90 1015.1
20260905105653 25 203 0.0 0.0 0.00 0.00 0.00 90 1015.1
20260905105151 25 199 0.0 0.0 0.00 0.00 0.00 91 1015.0
20260905104647 25 204 0.0 0.0 0.00 0.00 0.00 91 1015.3
20260905104142 25 208 0.0 0.0 0.00 0.00 0.00 91 1015.1
20260905103637 25 205 0.0 0.0 0.00 0.00 0.00 92 1015.0
20260905103133 25 203 0.0 0.0 0.00 0.00 0.00 92 1015.1
20260905102629 25 206 0.0 0.0 0.00 0.00 0.00 92 1015.0
20260905102125 25 202 0.0 0.0 0.00 0.00 0.00 92 1015.0
20260905101624 25 196 0.0 0.0 0.00 0.00 0.00 92 1015.4
20260905101122 25 194 0.0 0.0 0.00 0.00 0.00 92 1015.1
20260905100618 25 183 0.0 0.0 0.00 0.00 0.00 91 1015.3
20260905100114 25 180 0.0 0.0 0.00 0.00 0.00 91 1015.2
20260905095607 25 185 0.0 0.0 0.00 0.00 0.00 90 1015.2
20260905095102 26 185 1.6 1.6 0.00 0.00 0.00 89 1015.1
20260905094558 26 194 0.0 3.2 0.00 0.00 0.00 88 1015.1
20260905094057 25 199 3.2 3.2 0.00 0.00 0.00 90 1015.4
20260905093556 25 200 0.0 0.0 0.00 0.00 0.00 91 1015.4
20260905093054 25 200 0.0 0.0 0.00 0.00 0.00 91 1015.2
20260905092553 25 200 0.0 0.0 0.00 0.00 0.00 90 1015.3
20260905092049 25 200 0.0 0.0 0.00 0.00 0.00 90 1015.2
20260905091548 25 204 0.0 1.6 0.00 0.00 0.00 90 1015.3
20260905091042 25 201 0.0 0.0 0.00 0.00 0.00 90 1015.2
20260905090537 25 200 0.0 0.0 0.00 0.00 0.00 90 1015.3
20260905090032 26 205 0.0 0.0 0.00 0.00 0.00 89 1015.3
20260905085530 26 200 0.0 0.0 0.00 0.00 0.00 89 1015.4
20260905085027 26 200 0.0 0.0 0.00 0.00 0.00 89 1015.3
20260905084526 26 200 0.0 0.0 0.00 0.00 0.00 89 1015.2
20260905084021 26 200 0.0 0.0 0.00 0.00 0.00 89 1015.1
20260905083516 26 201 0.0 0.0 0.00 0.00 0.00 89 1015.4
20260905083013 26 202 0.0 0.0 0.00 0.00 0.00 90 1015.4
20260905082508 26 200 0.0 0.0 0.00 0.00 0.00 90 1015.2
20260905082003 26 200 0.0 0.0 0.00 0.00 0.00 90 1015.1
20260905081457 26 201 0.0 0.0 0.00 0.00 0.00 88 1015.3
20260905080957 26 202 1.6 1.6 0.00 0.00 0.00 88 1015.5
20260905080452 26 195 1.6 3.2 0.00 0.00 0.00 88 1015.3
20260905075950 26 199 0.0 0.0 0.00 0.00 0.00 90 1015.3
20260905075445 26 200 0.0 0.0 0.00 0.00 0.00 90 1015.3
20260905074944 26 202 0.0 1.6 0.00 0.00 0.00 90 1015.4
20260905074440 26 198 0.0 0.0 0.00 0.00 0.00 90 1015.3
20260905073935 26 197 0.0 1.6 0.00 0.00 0.00 89 1015.2
20260905073430 26 197 0.0 0.0 0.00 0.00 0.00 88 1015.4
20260905072926 26 185 1.6 3.2 0.00 0.00 0.00 88 1015.5
20260905072421 26 195 1.6 3.2 0.00 0.00 0.00 88 1015.4
20260905071917 26 194 1.6 3.2 0.00 0.00 0.00 88 1015.4
20260905071414 26 191 1.6 1.6 0.00 0.00 0.00 87 1015.3
20260905070912 26 193 1.6 1.6 0.00 0.00 0.00 87 1015.4
20260905070409 26 200 1.6 1.6 0.00 0.00 0.00 88 1015.5
20260905065909 26 191 3.2 3.2 0.00 0.00 0.00 91 1015.6
20260905065407 26 198 0.0 0.0 0.00 0.00 0.00 92 1015.7
20260905064902 26 199 0.0 0.0 0.00 0.00 0.00 92 1015.5
20260905064358 26 199 0.0 0.0 0.00 0.00 0.00 92 1015.5
20260905063857 26 199 0.0 0.0 0.00 0.00 0.00 91 1015.6
20260905063352 26 200 0.0 0.0 0.00 0.00 0.00 91 1015.6
20260905062849 27 200 0.0 0.0 0.00 0.00 0.00 91 1015.4
20260905062348 27 200 0.0 0.0 0.00 0.00 0.00 90 1015.7
20260905061843 26 200 0.0 0.0 0.00 0.00 0.00 91 1015.4
20260905061337 27 200 0.0 0.0 0.00 0.00 0.00 91 1015.7
20260905060832 27 203 0.0 0.0 0.00 0.00 0.00 90 1015.7
20260905060329 27 203 0.0 0.0 0.00 0.00 0.00 91 1016.0
20260905055827 26 193 0.0 0.0 0.00 0.00 0.00 91 1015.8
20260905055322 26 193 0.0 0.0 0.00 0.00 0.00 91 1015.8
20260905054822 26 193 0.0 0.0 0.00 0.00 0.00 91 1015.6
20260905054319 26 193 0.0 0.0 0.00 0.00 0.00 91 1016.0
20260905053818 26 193 0.0 0.0 0.00 0.00 0.00 92 1015.9
20260905053313 26 190 0.0 0.0 0.00 0.00 0.00 92 1016.0
20260905052813 26 190 0.0 0.0 0.00 0.00 0.00 91 1015.8
20260905052308 26 193 0.0 0.0 0.00 0.00 0.00 91 1015.7
20260905051808 26 193 0.0 0.0 0.00 0.00 0.00 91 1016.0
20260905051304 26 193 0.0 0.0 0.00 0.00 0.00 91 1015.9
20260905050801 26 193 0.0 0.0 0.00 0.00 0.00 91 1015.7
20260905050256 26 194 0.0 0.0 0.00 0.00 0.00 90 1015.7
20260905045751 27 194 0.0 0.0 0.00 0.00 0.00 90 1015.9
20260905045246 26 194 0.0 0.0 0.00 0.00 0.00 90 1015.8
20260905044742 27 194 0.0 0.0 0.00 0.00 0.00 90 1015.8
20260905044237 27 194 0.0 0.0 0.00 0.00 0.00 90 1015.9
20260905043735 27 194 0.0 0.0 0.00 0.00 0.00 90 1015.9
20260905043230 27 184 0.0 0.0 0.00 0.00 0.00 90 1015.9
20260905042725 27 183 0.0 0.0 0.00 0.00 0.00 90 1015.8
20260905042224 27 183 0.0 0.0 0.00 0.00 0.00 90 1016.0
20260905041720 27 190 0.0 0.0 0.00 0.00 0.00 90 1015.8
20260905041215 27 190 0.0 0.0 0.00 0.00 0.00 90 1015.8
20260905040709 27 190 0.0 0.0 0.00 0.00 0.00 89 1015.6
20260905040208 27 193 0.0 0.0 0.00 0.00 0.00 89 1015.6
20260905035703 27 193 0.0 0.0 0.00 0.00 0.00 89 1015.7
20260905035200 27 198 0.0 0.0 0.00 0.00 0.00 89 1015.7
20260905034656 27 198 0.0 0.0 0.00 0.00 0.00 89 1015.7
20260905034155 27 192 0.0 0.0 0.00 0.00 0.00 89 1015.8
20260905033654 27 191 0.0 0.0 0.00 0.00 0.00 88 1015.8
20260905033149 27 191 0.0 0.0 0.00 0.00 0.00 88 1015.7
20260905032649 27 192 0.0 0.0 0.00 0.00 0.00 87 1015.7
20260905032144 27 200 0.0 0.0 0.00 0.00 0.00 88 1016.0
20260905031640 27 200 0.0 0.0 0.00 0.00 0.00 87 1015.9
20260905031135 27 200 0.0 0.0 0.00 0.00 0.00 87 1016.0
20260905030630 28 200 0.0 0.0 0.00 0.00 0.00 86 1015.9